This is the latest recevied weather packets stored in our database for station/object KG7KID-7. If no packets are shown the sender has not sent any weather packets the latest 10 day(s).
| Time | Temp. | Humidity | Pressure | Rain* | Wind** | Luminosity | Snow |
|---|---|---|---|---|---|---|---|
| 1777424566 | 24.44° C | 13% | 976.8 hPa | 0 mm | - | - | - |
| 1777424304 | 25° C | 13% | 976.7 hPa | 0 mm | - | - | - |
| 1777424266 | 25° C | 13% | 976.7 hPa | 0 mm | - | - | - |
| 1777420929 | 25° C | 11% | 976.7 hPa | 0 mm | - | - | - |
| 1777420607 | 25.56° C | 11% | 976.6 hPa | 0 mm | - | - | - |
| 1777420340 | 26.11° C | 12% | 976.7 hPa | 0 mm | - | - | - |
| 1777420291 | 26.11° C | 12% | 976.7 hPa | 0 mm | - | - | - |
| 1777419992 | 26.11° C | 11% | 976.7 hPa | 0 mm | - | - | - |
| 1777419692 | 26.67° C | 11% | 976.7 hPa | 0 mm | - | - | - |
| 1777419429 | 26.67° C | 12% | 976.8 hPa | 0 mm | - | - | - |
| 1777419391 | 26.67° C | 12% | 976.8 hPa | 0 mm | - | - | - |
| 1777418791 | 26.11° C | 12% | 976.9 hPa | 0 mm | - | - | - |
| 1777418527 | 26.67° C | 12% | 976.9 hPa | 0 mm | - | - | - |
| 1777418492 | 26.67° C | 12% | 976.9 hPa | 0 mm | - | - | - |
| 1777418144 | 26.67° C | 12% | 976.9 hPa | 0 mm | - | - | - |
| 1777418106 | 26.67° C | 12% | 976.9 hPa | 0 mm | - | - | - |
| 1777417505 | 26.11° C | 12% | 976.8 hPa | 0 mm | - | - | - |
| 1777416100 | 26.11° C | 13% | 977.2 hPa | 0 mm | - | - | - |
| 1777416061 | 26.11° C | 13% | 977.2 hPa | 0 mm | - | - | - |
| 1777415762 | 26.11° C | 13% | 977.1 hPa | 0 mm | - | - | - |
| 1777415461 | 26.11° C | 14% | 977.2 hPa | 0 mm | - | - | - |
| 1777415160 | 25.56° C | 14% | 977.3 hPa | 0 mm | - | - | - |
| 1777414912 | 25.56° C | 14% | 977.4 hPa | 0 mm | - | - | - |
| 1777414861 | 25.56° C | 14% | 977.4 hPa | 0 mm | - | - | - |
| 1777414561 | 25° C | 14% | 977.4 hPa | 0 mm | - | - | - |
* Rain latest hour (hover to see other rain measurements)
** Current wind speed in m/s (hover to see current wind gust speed)